| time (UTC) | temp F | wind direction | speed knots | gust knots | rain 1hr in | rain 24hr in | rain mn in | humidity % | barometer mb |
| 20260505013056 | 77 | 65 | 3.5 | 7.0 | 0.00 | 0.00 | 0.00 | 73 | 1017.0 |
| 20260505011525 | 77 | 177 | 2.6 | 7.0 | 0.00 | 0.00 | 0.00 | 75 | 1017.3 |
| 20260505010107 | 77 | 125 | 1.7 | 7.8 | 0.00 | 0.00 | 0.00 | 75 | 1017.6 |
| 20260505004503 | 76 | 178 | 2.6 | 6.1 | 0.00 | 0.00 | 0.00 | 75 | 1018.0 |
| 20260505003039 | 76 | 203 | 1.7 | 5.2 | 0.00 | 0.00 | 0.00 | 75 | 1018.0 |
| 20260505001559 | 76 | 189 | 1.7 | 7.8 | 0.00 | 0.00 | 0.00 | 76 | 1018.1 |
| 20260505001501 | 76 | 174 | 2.6 | 7.8 | 0.00 | 0.00 | 0.00 | 76 | 1018.2 |
| 20260505000033 | 75 | 118 | 3.5 | 7.0 | 0.00 | 0.00 | 0.00 | 77 | 1018.4 |
| 20260504234549 | 75 | 184 | 0.9 | 4.3 | 0.00 | 0.00 | 0.00 | 79 | 1018.5 |
| 20260504233005 | 74 | 163 | 1.7 | 6.1 | 0.00 | 0.00 | 0.00 | 83 | 1018.6 |
| 20260504231531 | 73 | 169 | 1.7 | 6.1 | 0.00 | 0.00 | 0.00 | 83 | 1018.7 |
| 20260504230050 | 73 | 209 | 2.6 | 7.8 | 0.00 | 0.00 | 0.00 | 85 | 1018.7 |
| 20260504224537 | 72 | 221 | 2.6 | 7.0 | 0.00 | 0.00 | 0.00 | 86 | 1018.7 |
| 20260504223002 | 71 | 183 | 4.3 | 7.0 | 0.00 | 0.00 | 0.00 | 86 | 1018.8 |
| 20260504221545 | 71 | 187 | 3.5 | 6.1 | 0.00 | 0.00 | 0.00 | 87 | 1018.8 |
| 20260504220051 | 70 | 201 | 2.6 | 6.1 | 0.00 | 0.00 | 0.00 | 89 | 1018.6 |
| 20260504214505 | 69 | 181 | 2.6 | 6.1 | 0.00 | 0.00 | 0.00 | 91 | 1018.6 |
| 20260504213047 | 68 | 188 | 1.7 | 4.3 | 0.00 | 0.00 | 0.00 | 93 | 1018.4 |
| 20260504211550 | 68 | 176 | 1.7 | 5.2 | 0.00 | 0.00 | 0.00 | 94 | 1018.4 |
| 20260504210019 | 67 | 198 | 0.9 | 3.5 | 0.00 | 0.01 | 0.00 | 94 | 1018.3 |
| 20260504204538 | 66 | 197 | 0.9 | 2.6 | 0.00 | 0.01 | 0.00 | 94 | 1018.0 |
| 20260504203045 | 66 | 179 | 0.0 | 3.5 | 0.00 | 0.01 | 0.00 | 94 | 1017.8 |
| 20260504201526 | 66 | 206 | 0.9 | 4.3 | 0.00 | 0.01 | 0.00 | 94 | 1017.7 |
| 20260504200049 | 66 | 195 | 1.7 | 4.3 | 0.00 | 0.03 | 0.00 | 94 | 1017.6 |
| 20260504194529 | 66 | 190 | 0.0 | 2.6 | 0.00 | 0.03 | 0.00 | 94 | 1017.4 |
| 20260504193041 | 66 | 205 | 0.0 | 2.6 | 0.00 | 0.03 | 0.00 | 93 | 1017.2 |
| 20260504191538 | 67 | 206 | 1.7 | 4.3 | 0.00 | 0.03 | 0.00 | 93 | 1017.1 |
| 20260504190004 | 67 | 198 | 0.9 | 3.5 | 0.00 | 0.07 | 0.00 | 93 | 1017.0 |
| 20260504184521 | 67 | 176 | 0.9 | 3.5 | 0.00 | 0.07 | 0.00 | 93 | 1016.8 |
| 20260504183048 | 67 | 194 | 0.9 | 3.5 | 0.00 | 0.07 | 0.00 | 93 | 1016.8 |
| 20260504181518 | 67 | 174 | 1.7 | 4.3 | 0.00 | 0.07 | 0.00 | 93 | 1016.9 |
| 20260504180046 | 67 | 207 | 1.7 | 5.2 | 0.00 | 0.08 | 0.00 | 93 | 1016.7 |
| 20260504174502 | 67 | 227 | 2.6 | 5.2 | 0.00 | 0.08 | 0.00 | 93 | 1016.8 |
| 20260504173022 | 67 | 185 | 1.7 | 5.2 | 0.00 | 0.08 | 0.00 | 93 | 1016.7 |
| 20260504171554 | 68 | 192 | 0.9 | 4.3 | 0.00 | 0.08 | 0.00 | 93 | 1016.7 |
| 20260504081555 | 72 | 121 | 0.9 | 3.5 | 0.00 | 0.15 | 0.15 | 86 | 1017.8 |
| 20260504044550 | 76 | 115 | 5.2 | 9.6 | 0.00 | 0.15 | 0.15 | 76 | 1016.7 |
| 20260504043016 | 77 | 164 | 4.3 | 9.6 | 0.00 | 0.15 | 0.15 | 76 | 1016.7 |
| 20260504041540 | 78 | 181 | 3.5 | 9.6 | 0.00 | 0.15 | 0.15 | 75 | 1016.8 |
| 20260504040123 | 78 | 131 | 2.6 | 7.8 | 0.00 | 0.15 | 0.15 | 72 | 1016.7 |
| 20260504034525 | 78 | 140 | 2.6 | 8.7 | 0.00 | 0.15 | 0.15 | 74 | 1016.9 |
| 20260504033049 | 77 | 95 | 2.6 | 9.6 | 0.00 | 0.15 | 0.15 | 74 | 1017.0 |
| 20260504031516 | 77 | 114 | 2.6 | 7.8 | 0.00 | 0.15 | 0.15 | 74 | 1017.2 |
| 20260504030039 | 76 | 175 | 3.5 | 7.8 | 0.00 | 0.15 | 0.15 | 76 | 1017.3 |
| 20260504024559 | 77 | 86 | 4.3 | 10.4 | 0.00 | 0.15 | 0.15 | 76 | 1017.4 |
| 20260504023017 | 77 | 105 | 3.5 | 9.6 | 0.00 | 0.15 | 0.15 | 76 | 1017.7 |
| 20260504021551 | 76 | 83 | 4.3 | 7.8 | 0.00 | 0.15 | 0.15 | 78 | 1017.8 |
| 20260504020009 | 77 | 134 | 5.2 | 11.3 | 0.00 | 0.15 | 0.15 | 76 | 1018.1 |
| 20260504014605 | 76 | 109 | 4.3 | 8.7 | 0.00 | 0.15 | 0.15 | 78 | 1018.1 |